RH
13 13 13 16 23 36 45 57 68 68 79 89 94 98 96 95 97 100 98 90 85 93 84 74 67 58 69 64 80 72 82 76 59 52 26 18 16 16 10 10 11 11 12 16 19
16 18 21 22 21 19 25 32 35 44 48 64 77 93 89 88 95 88 88 95 83 76 83 84 79 62 68 60 50 48 38 33 24 19 12 11 10 11 13 14 14 16 16 17 20
21 23 26 28 29 28 31 31 36 36 40 50 59 72 80 74 91 88 74 87 87 84 74 68 55 54 49 46 39 28 17 12 11 11 10 11 13 14 15 16 19 18 18 21 20
28 28 28 30 40 48 51 50 55 53 54 39 32 52 72 71 72 74 71 76 69 61 55 48 49 36 27 21 14 9 9 10 11 12 13 14 16 18 20 21 20 21 23 21 21
71 62 94 85 92 96 92 82 79 82 69 80 78 78 61 64 58 44 46 44 42 38 33 29 19 12 9 9 10 10 12 13 15 15 17 17 22 25 26 28 29 28 29 34 36
100 100 100 100 100 100 100 100 100 100 89 77 59 34 26 20 16 17 14 13 13 12 10 10 9 8 9 10 10 12 14 16 19 19 22 24 28 28 29 29 28 30 32 39 38
100 100 100 100 100 100 100 93 72 47 27 19 17 14 14 12 11 11 11 11 11 11 11 10 10 11 11 12 14 15 19 20 21 24 26 31 31 30 31 33 40 42 42 32 33
100 100 100 100 93 70 42 28 27 25 22 19 18 16 14 14 13 14 13 12 12 12 12 12 12 13 13 15 17 16 21 24 22 26 30 32 36 42 42 46 38 40 40 34 40
96 85 81 75 41 28 26 29 33 32 23 24 23 20 16 16 16 16 15 13 13 14 14 14 14 14 18 19 19 25 23 22 23 26 32 34 38 37 41 45 43 48 56 78 68
69 51 37 35 41 39 36 41 35 31 31 29 27 24 22 18 18 17 16 16 15 15 16 17 17 19 21 24 22 25 22 23 23 29 32 38 40 38 42 35 29 40 59 99 100
42 48 64 64 56 50 45 38 34 38 44 46 40 31 27 22 19 18 18 18 17 18 19 18 18 18 22 21 24 24 26 24 24 26 30 37 44 55 38 36 47 64 94 100 92
61 69 60 59 55 38 39 37 37 46 57 54 44 40 42 26 22 18 19 20 19 20 19 17 17 17 17 18 18 21 24 28 26 26 26 24 36 42 29 46 59 61 58 57 83
70 56 63 47 44 44 42 39 40 50 50 38 39 54 66 38 27 21 20 20 21 21 19 19 18 17 18 18 19 20 20 20 24 27 28 26 47 43 52 43 38 47 67 94 100
56 57 55 42 44 38 35 39 48 47 32 31 32 44 90 67 32 24 22 21 23 22 22 23 23 22 23 26 28 26 21 24 21 31 30 31 27 27 44 40 50 48 58 79 95
57 60 52 48 40 34 37 51 45 26 32 31 29 34 44 84 62 28 24 24 22 23 26 26 25 23 26 33 36 38 33 28 29 25 30 48 40 19 24 32 31 49 49 62 99
56 49 44 40 37 37 50 50 26 26 31 30 30 29 36 52 76 46 26 23 25 23 28 34 31 34 36 42 44 42 42 35 37 35 30 56 70 60 37 23 32 39 41 49 78
51 44 41 33 31 42 54 36 32 37 34 29 29 31 33 37 55 51 30 25 25 20 25 28 36 36 48 55 52 40 35 41 38 41 44 54 58 74 59 48 46 55 45 57 69
43 34 33 35 38 48 62 54 55 43 46 42 36 32 36 38 42 41 31 26 22 19 28 35 44 54 56 46 49 49 41 32 36 36 61 80 84 82 67 67 61 45 43 48 61
39 54 51 46 44 46 59 65 65 57 55 69 44 36 43 37 39 35 24 27 21 25 32 39 45 50 38 37 46 47 44 32 29 38 37 47 54 61 62 56 45 31 33 25 36
50 58 56 59 52 56 60 62 56 59 69 76 53 40 34 28 24 26 29 21 22 21 30 38 34 34 31 40 42 39 28 26 23 24 25 31 42 51 40 35 30 23 18 43 51
55 64 55 54 70 60 53 54 61 71 73 61 61 54 39 27 22 22 26 20 22 22 29 36 47 31 29 31 34 39 44 31 29 28 27 22 30 38 22 21 22 33 49 49 33
46 58 55 60 74 80 85 81 60 67 71 57 54 71 54 43 25 21 24 20 22 23 25 31 25 23 24 28 29 30 32 30 22 21 23 14 25 28 30 31 40 44 50 50 56
55 53 51 62 67 78 74 72 76 75 71 62 68 63 42 41 38 22 21 20 21 21 22 24 21 22 23 23 24 28 29 31 27 22 20 19 22 30 33 38 41 57 82 83 86
56 47 46 57 61 65 73 78 78 66 54 49 47 46 42 41 31 33 23 20 18 19 19 20 20 21 22 21 24 28 40 45 50 50 42 67 53 69 64 60 68 84 88 92 86
50 42 49 53 54 58 57 66 67 67 59 47 42 43 42 32 27 26 28 29 25 23 24 24 27 24 32 34 36 39 45 53 62 67 62 76 85 84 85 89 100 94 94 90 99
40 41 44 46 48 52 48 53 67 71 67 79 55 50 45 40 37 51 33 35 33 28 31 33 34 35 42 48 51 65 90 88 70 67 86 83 74 82 95 96 84 97 92 84 78
48 44 44 47 49 76 70 65 67 72 74 69 73 49 46 53 56 62 57 53 46 46 49 50 44 46 58 71 76 100 100 95 78 80 77 58 52 52 62 54 42 51 65 74 66
Wind_Speed
42 46 50 56 59 68 78 90 101 101 104 111 112 114 115 114 113 112 113 115 116 112 112 117 114 112 113 117 117 112 108 118 124 119 103 96 93 86 78 68 63 59 56 47 41
32 36 43 49 54 63 74 79 76 86 92 102 101 97 106 106 112 116 113 112 118 116 114 112 113 111 104 114 117 119 116 103 99 96 87 71 62 57 48 44 40 33 29 26 21
32 37 40 44 46 48 54 60 62 70 75 80 83 84 92 102 104 106 108 110 111 105 104 89 95 109 102 103 99 98 91 82 63 55 51 45 39 34 29 24 18 15 12 10 10
33 36 37 40 41 43 45 46 49 57 64 78 90 87 84 90 94 96 102 99 106 102 98 91 102 102 89 79 66 48 42 38 31 29 27 21 13 6 5 9 14 16 17 18 18
30 30 31 33 34 34 35 40 43 47 51 55 58 59 69 66 74 85 85 79 87 94 91 94 54 38 31 22 19 21 19 13 5 5 5 12 13 15 16 16 25 28 30 37 35
33 34 31 33 31 33 36 34 33 36 35 41 39 36 34 35 33 39 40 46 41 31 16 19 10 12 13 13 13 11 9 9 13 15 17 17 20 22 23 28 31 34 39 37 38
29 31 26 29 28 33 30 25 26 25 24 18 15 15 16 16 14 13 11 6 8 8 12 9 12 13 15 15 13 11 13 15 15 18 20 24 25 28 27 32 34 35 36 36 36
27 25 25 25 30 21 20 21 15 11 9 10 10 11 13 9 5 6 5 3 8 11 16 15 14 14 10 8 7 10 15 12 17 22 25 25 26 27 27 28 28 32 32 32 31
26 25 23 22 19 20 19 13 6 6 8 8 9 11 9 6 3 5 6 7 10 12 16 14 10 8 6 5 4 9 5 9 15 18 19 20 20 20 21 23 27 29 30 31 33
17 20 21 20 16 13 11 7 5 7 7 8 9 10 10 8 5 5 5 9 12 12 15 9 8 6 6 4 4 2 3 6 12 14 13 14 17 18 19 22 22 23 25 27 28
23 21 19 16 15 14 10 6 5 6 6 8 10 11 10 9 6 7 5 10 9 7 6 3 7 6 3 3 1 3 6 7 8 9 9 10 11 12 13 15 17 21 24 25 26
24 20 16 12 11 8 5 4 5 7 8 10 10 12 11 13 10 8 9 10 7 7 3 4 3 2 2 1 2 2 2 3 5 7 10 8 7 7 9 13 19 24 26 25 25
21 17 14 11 7 5 5 6 8 9 11 14 12 12 14 15 17 13 12 10 9 10 6 7 7 2 3 4 6 5 4 10 9 6 7 10 9 12 16 17 16 20 23 27 30
19 15 13 10 8 7 6 7 9 12 12 15 16 15 16 16 19 18 14 13 13 11 10 12 10 9 8 11 12 10 12 15 11 10 14 16 15 10 14 18 20 22 27 31 34
14 12 11 9 8 8 8 9 11 11 12 17 19 18 17 18 19 23 19 14 13 13 15 13 18 17 14 16 19 19 17 18 14 14 15 20 22 15 13 13 14 19 28 29 35
15 13 12 10 9 9 9 11 12 13 16 19 19 17 20 20 21 20 26 20 15 14 16 17 17 17 20 23 24 23 23 19 18 22 19 24 30 36 32 31 25 24 26 28 36
16 15 13 12 11 10 11 10 12 14 18 18 18 17 20 20 21 20 27 27 20 15 15 16 18 20 17 17 16 22 21 22 21 22 30 27 32 39 42 42 40 37 37 41 45
16 14 12 10 11 11 12 12 14 15 18 21 22 20 19 17 22 20 23 32 21 18 16 17 16 20 19 18 21 22 22 22 25 28 29 37 40 48 45 45 44 43 45 49 54
13 11 10 11 11 13 14 15 13 15 18 20 24 22 19 20 18 18 22 30 23 18 17 18 17 18 20 18 22 23 24 26 28 28 29 32 44 55 51 49 51 47 51 51 55
14 13 12 12 13 14 15 14 16 16 17 17 22 21 17 22 18 24 23 26 24 20 18 22 22 21 21 22 24 27 30 33 35 34 34 36 41 51 54 54 57 58 58 64 68
17 17 15 14 14 15 15 16 16 16 15 16 18 20 21 20 17 15 21 26 24 25 24 25 28 26 27 26 27 29 33 31 36 39 41 34 39 52 50 52 54 59 66 65 70
22 20 18 16 15 15 15 17 16 16 17 17 18 18 19 20 18 17 17 23 27 28 32 29 31 39 36 34 33 35 42 46 40 37 44 38 44 54 58 60 62 65 69 72 76
23 23 23 21 18 19 18 18 19 20 19 18 18 19 16 17 16 16 20 25 30 33 35 39 40 43 46 41 41 44 53 56 48 45 45 44 47 55 58 60 64 68 73 76 77
27 27 26 25 23 24 23 21 20 19 18 17 18 17 16 17 16 16 21 25 30 36 40 41 44 40 44 44 40 39 42 47 49 48 47 59 55 66 69 71 73 74 76 76 79
30 31 30 28 28 28 27 25 23 21 17 18 19 19 19 18 18 17 17 17 20 26 25 26 32 30 36 34 35 38 44 49 53 58 59 59 68 70 72 73 75 77 80 83 86
35 34 34 32 30 31 29 30 30 30 25 25 22 24 25 22 23 23 23 24 26 27 27 30 31 32 39 44 45 48 55 56 59 62 64 64 65 72 75 79 83 84 86 90 94
38 38 37 36 33 32 31 30 30 31 34 32 30 27 27 30 29 30 31 33 34 34 39 41 39 37 40 46 49 52 58 58 59 62 65 70 72 75 80 83 87 89 89 92 96
Wind_Direction
213 216 221 226 229 236 239 242 242 243 246 247 250 254 257 261 262 265 267 266 268 269 271 268 274 277 283 281 283 287 284 283 286 286 287 283 283 282 284 282 285 286 285 283 283
206 206 211 216 222 228 232 240 244 245 248 250 254 257 257 264 264 267 269 270 270 273 275 276 282 280 281 283 285 287 293 284 282 283 284 280 283 281 284 289 290 291 292 293 289
190 194 201 207 217 223 227 233 241 245 249 254 257 261 262 265 266 268 267 273 270 275 279 284 283 284 285 291 283 284 286 285 283 284 283 282 282 287 293 297 308 320 322 332 324
181 186 193 199 206 212 222 230 236 244 249 255 258 260 263 265 269 272 272 272 272 274 278 283 281 286 291 288 288 286 285 289 289 288 288 292 291 293 32 43 31 28 21 35 27
174 175 182 192 198 208 221 227 233 238 245 249 255 261 265 269 274 270 273 282 283 284 286 282 283 283 286 291 293 295 296 296 354 346 28 63 57 56 52 57 60 55 56 59 55
169 179 187 191 199 208 215 221 231 241 251 259 262 267 276 280 285 287 288 288 286 288 293 280 308 287 309 320 319 339 358 14 26 44 63 80 84 78 66 67 68 71 69 61 56
176 182 186 193 204 213 220 235 242 245 244 246 271 289 312 315 310 306 293 288 314 327 347 347 346 342 336 333 353 17 37 48 63 80 87 85 81 74 72 70 70 64 62 56 55
191 198 203 211 214 232 204 195 206 226 264 285 307 320 333 325 311 334 1 21 8 356 1 353 353 343 341 14 40 42 36 33 75 86 84 81 74 77 76 65 62 57 55 45 41
200 206 216 219 194 181 182 184 217 278 307 317 319 339 331 316 357 347 344 351 344 349 346 348 4 358 37 69 47 56 94 96 94 89 82 81 77 73 64 54 50 43 35 28 25
205 179 166 167 172 174 176 198 244 281 309 319 327 333 321 306 305 311 345 329 332 337 337 7 72 72 54 42 71 164 113 88 101 88 79 69 60 57 49 52 48 37 24 21 20
162 157 160 161 162 167 181 216 271 304 309 326 321 317 294 287 287 272 293 306 296 324 322 74 103 91 104 155 121 146 104 88 78 63 56 44 39 32 39 31 19 15 18 21 16
159 159 157 156 162 179 198 235 283 293 309 315 312 297 287 267 265 255 278 283 267 270 263 191 182 241 243 321 250 2 30 10 359 33 35 29 34 28 20 13 6 5 4 3 359
164 167 169 170 172 191 223 257 279 294 299 305 300 280 277 261 256 253 258 253 269 252 255 228 249 282 295 282 304 313 348 333 317 326 357 348 326 313 323 339 359 359 351 341 340
176 184 183 185 196 224 249 269 277 286 287 301 301 277 261 261 251 242 244 248 258 229 245 263 274 285 295 315 324 316 286 305 293 277 314 313 316 274 273 305 319 335 334 329 330
197 202 202 213 228 254 265 273 276 275 288 298 302 283 265 261 264 246 243 242 240 241 260 272 275 283 293 298 306 312 311 307 303 290 312 323 322 303 300 282 286 314 324 327 329
207 213 219 232 252 257 254 274 270 285 296 305 299 288 272 261 256 255 241 243 246 258 268 280 286 293 298 303 306 310 315 314 311 308 314 316 319 317 319 320 319 318 319 324 321
206 217 230 253 254 251 262 276 287 295 305 313 305 294 281 272 258 257 237 244 250 246 261 266 281 287 290 300 307 309 309 313 308 311 311 313 311 305 307 309 313 316 317 320 320
213 225 239 248 250 258 263 279 303 297 308 313 317 300 282 275 264 261 235 238 247 243 249 263 261 281 297 299 306 309 301 296 299 308 320 322 317 310 315 315 315 316 314 314 318
223 229 244 245 251 266 272 278 295 304 302 319 320 317 282 271 278 261 239 230 242 230 249 272 264 269 283 292 295 295 294 290 288 295 298 306 311 309 311 311 310 309 307 312 311
227 232 245 257 262 267 275 282 288 298 303 310 322 316 298 294 284 270 252 231 242 241 263 270 271 274 282 291 294 295 293 293 289 291 293 296 299 302 302 305 305 309 310 314 314
232 239 247 263 268 274 276 286 286 290 303 303 319 322 306 314 300 278 259 240 238 255 266 266 271 285 292 285 291 292 292 299 299 293 289 290 293 300 298 301 305 308 310 308 305
235 240 250 259 270 273 281 280 277 292 300 310 312 318 317 314 308 297 267 242 248 255 263 268 281 291 289 288 286 292 293 298 299 285 292 299 298 301 302 305 307 307 306 306 308
241 240 247 253 267 271 274 281 278 284 295 302 307 319 314 315 307 291 279 250 249 256 262 267 284 292 292 292 296 292 293 297 305 306 302 300 299 299 300 302 304 304 305 308 312
240 241 247 251 260 265 268 277 281 282 286 297 306 306 312 319 313 302 285 275 265 264 270 276 284 289 289 294 300 303 300 305 310 311 310 307 308 306 308 310 310 309 310 311 311
234 241 246 253 261 266 266 271 273 278 284 287 289 296 302 309 309 310 307 303 290 284 289 290 288 297 296 299 303 303 300 303 307 309 310 309 312 313 314 317 314 312 312 311 311
241 246 249 254 263 269 270 274 271 274 280 283 287 286 288 291 295 300 294 299 299 297 297 296 301 304 306 306 308 306 303 303 305 306 306 309 313 313 313 312 312 311 310 310 310
244 249 252 255 260 268 269 269 270 267 272 274 281 282 284 288 287 291 292 292 291 294 296 295 293 292 293 296 298 299 299 303 304 304 305 308 306 305 308 309 309 308 308 308 307